Dewpoint
51 48 39 32 20 20 17 17 20 25 46 55 55 55 55 58 54 47 64 65 68 68 70 70 70 70 70 69 69 69 69 69 68 68 68 67 66 64 63 63 61 58 56 57 57 57 56 56 57
45 42 37 26 15 10 10 22 32 49 50 54 54 57 55 56 61 62 62 65 68 68 69 69 70 70 69 69 69 68 68 68 68 68 67 66 64 63 62 61 59 58 58 57 57 56 56 56 57
38 34 26 21 9 5 9 45 47 49 50 52 52 56 57 58 62 63 63 64 67 68 69 69 69 69 69 69 68 68 68 68 68 68 66 64 63 61 60 60 59 59 58 57 56 56 56 55 55
27 21 18 10 8 8 30 35 51 50 50 50 50 51 57 63 62 64 64 65 66 68 69 69 69 69 69 68 69 68 68 68 68 67 65 63 62 60 60 60 59 59 58 57 57 56 55 54 54
23 19 14 6 6 38 48 49 48 47 49 48 49 50 56 63 65 65 63 65 66 67 67 67 68 69 68 68 68 68 67 67 67 66 65 63 60 60 60 61 61 60 58 58 58 57 55 53 51
24 15 10 8 13 47 47 49 47 46 46 47 48 51 55 64 64 65 66 66 65 64 64 64 64 64 65 68 67 67 65 65 65 65 64 63 61 61 61 61 61 60 60 58 57 56 55 54 54
22 18 12 9 9 42 47 49 48 47 45 47 51 51 56 62 65 65 65 65 65 64 64 65 64 63 65 66 66 65 64 64 64 64 62 61 61 60 60 60 59 59 58 57 56 56 56 55 54
19 15 12 9 11 35 47 48 51 47 45 50 53 50 52 59 64 64 64 64 64 64 64 64 63 66 66 66 64 63 63 62 61 60 60 59 59 59 59 59 59 59 58 57 56 56 55 54 55
18 15 13 12 20 40 47 46 49 51 48 49 53 52 56 61 62 62 62 62 62 63 63 62 65 65 65 65 63 62 61 60 59 60 59 58 58 59 59 58 59 59 58 57 57 57 56 56 53
14 12 12 31 42 41 43 46 47 47 45 48 51 58 59 59 59 58 59 59 60 60 61 64 64 64 64 63 62 61 60 59 59 58 58 58 58 59 60 59 59 59 59 59 59 59 56 53 52
15 12 26 40 42 43 42 45 48 45 42 46 47 57 59 57 57 56 57 58 58 58 62 63 63 63 62 61 60 59 58 57 57 57 57 58 60 60 59 60 60 60 60 58 53 51 51 49 49
12 20 32 43 44 44 43 46 45 45 44 47 47 58 58 57 57 55 56 55 56 58 60 62 63 61 59 59 57 56 56 58 59 61 61 61 60 59 59 59 56 54 53 51 49 48 48 46 45
18 38 40 41 40 41 43 37 39 44 53 51 56 56 55 54 56 55 56 57 56 59 59 60 61 56 58 58 57 59 61 62 62 62 62 61 60 60 56 55 53 51 50 48 46 45 43 42 40
31 35 36 37 39 38 36 37 40 47 49 51 52 55 54 54 56 58 59 59 58 58 55 56 56 56 59 59 59 60 60 60 61 61 61 60 60 57 54 52 50 48 48 46 44 42 40 38 37
34 34 33 36 34 32 37 32 36 43 49 52 53 55 53 53 56 55 58 58 54 54 53 54 56 60 58 57 57 57 58 59 59 60 59 57 55 53 51 49 47 47 47 44 42 40 38 37 36
23 26 27 33 31 32 33 30 35 43 48 51 54 55 53 54 54 56 57 57 53 54 53 56 60 58 56 56 56 55 57 57 57 57 55 54 52 49 47 46 47 49 46 43 41 39 37 36 35
22 20 25 30 31 29 30 28 40 47 48 48 53 53 51 49 52 52 57 52 52 52 53 57 58 57 56 56 56 55 55 55 55 54 52 51 50 48 47 46 47 46 44 43 41 39 37 35 34
18 20 22 24 30 31 29 28 38 43 43 44 49 53 49 49 50 52 54 51 52 53 56 58 58 57 57 56 56 56 54 54 53 50 49 49 50 49 48 47 44 43 40 41 38 36 37 36 34
24 23 22 24 26 31 28 26 33 38 40 40 47 50 52 50 49 53 53 51 53 56 57 58 57 56 56 55 55 54 52 53 50 50 49 48 48 48 46 45 42 40 38 38 37 37 35 34 35
27 26 24 23 23 29 25 24 32 38 38 39 39 38 40 43 43 45 48 53 57 57 58 57 56 56 56 55 55 55 53 52 49 49 49 46 47 46 44 42 40 38 38 37 36 36 35 35 35
27 27 23 21 22 25 20 24 28 36 37 37 38 39 39 42 45 47 51 57 58 58 57 56 56 56 56 55 55 53 50 49 48 47 46 46 45 44 42 40 38 37 37 36 36 36 35 33 35
25 26 25 21 18 11 22 17 25 28 36 37 36 41 42 45 48 54 56 58 58 58 57 57 56 56 56 56 56 51 48 46 46 46 46 46 44 42 40 39 38 38 39 37 38 38 37 37 35
25 27 25 24 24 23 23 18 19 27 30 34 37 40 43 47 49 55 57 58 58 58 58 57 57 57 57 57 56 51 47 46 46 47 46 46 44 43 41 39 38 39 38 37 36 37 36 37 35
26 25 30 29 27 19 22 21 19 23 25 30 36 40 44 47 51 55 57 58 58 58 58 58 57 57 57 56 52 49 46 46 46 46 44 41 38 38 38 37 37 36 35 35 35 35 35 36 38
27 25 21 19 19 19 25 24 23 25 26 28 33 40 44 49 53 55 56 57 57 57 57 57 56 52 50 48 48 46 44 43 42 40 37 35 36 37 36 35 32 32 32 31 31 31 32 33 35
29 25 20 16 17 17 27 23 22 30 31 35 38 43 47 51 54 55 55 55 55 55 55 53 49 47 45 42 41 39 39 39 39 38 38 38 37 34 34 31 30 29 29 30 31 32 32 34 37
26 26 32 28 27 22 20 24 30 31 30 33 37 45 48 50 53 53 53 52 51 50 49 48 46 47 43 40 39 38 38 37 37 39 39 40 38 33 30 29 28 29 29 32 33 33 34 33 34
25 30 25 28 15 11 16 19 23 29 32 37 37 42 46 46 49 50 50 49 47 46 46 46 46 45 41 39 38 37 36 38 38 39 40 37 31 29 28 28 28 29 31 33 33 33 33 32 32
24 23 24 24 21 16 16 17 24 29 34 35 37 42 45 44 45 47 48 47 47 47 46 45 45 43 39 38 37 35 37 39 38 35 33 30 28 28 28 29 29 29 32 34 33 32 32 31 31
29 26 24 21 18 24 21 18 25 30 31 37 38 43 45 43 43 44 46 47 47 47 46 44 42 39 37 36 36 38 38 39 35 30 29 29 28 29 29 29 29 30 33 33 31 30 31 30 29
Wind_Speed
4 5 2 3 2 3 6 9 16 13 2 2 4 12 14 7 1 5 10 15 21 19 18 24 28 26 23 21 19 18 18 21 23 23 23 22 22 21 20 19 18 18 18 17 17 17 17 18 19
3 4 3 3 3 1 10 7 7 7 5 11 12 9 7 5 3 12 13 18 21 21 18 21 34 25 23 21 21 19 20 21 21 23 23 21 21 21 20 19 17 17 17 16 17 16 16 17 18
2 2 1 3 5 11 5 5 7 1 4 4 6 8 5 5 9 7 18 16 16 18 18 23 32 30 25 22 22 19 19 20 19 21 22 21 21 21 20 18 16 16 16 16 16 15 14 15 17
1 3 2 4 12 9 9 12 2 1 1 2 10 10 5 4 2 8 20 16 17 14 16 21 27 26 25 24 22 20 18 19 19 20 21 21 20 20 19 17 16 16 15 15 13 12 13 15 17
3 4 3 2 2 2 8 8 3 1 1 7 1 4 5 5 17 22 22 12 15 13 17 20 28 26 25 23 22 19 18 18 17 20 20 19 19 19 18 16 15 14 14 12 12 10 13 16 18
1 2 3 2 2 1 2 7 3 8 7 3 8 6 2 10 17 15 13 18 16 16 22 17 21 25 24 21 20 18 19 18 17 19 19 18 18 18 18 15 14 13 11 10 8 10 11 13 15
4 1 5 7 6 7 3 3 2 3 11 12 5 4 2 9 14 18 16 16 18 20 20 16 18 22 23 21 20 20 19 17 16 17 18 17 17 18 17 15 13 12 10 8 6 10 11 12 13
5 2 6 6 7 6 5 3 4 10 8 4 4 5 6 5 14 21 20 17 13 12 21 25 19 16 14 16 19 20 19 17 16 17 16 17 17 16 14 12 10 9 6 4 6 8 9 10 12
5 2 12 12 7 6 8 8 5 8 4 7 3 4 14 17 19 22 20 19 16 16 14 25 19 13 12 14 15 19 19 18 15 14 14 14 10 11 9 7 7 5 4 4 8 8 10 10 14
3 3 6 5 6 6 9 5 7 2 6 5 6 16 28 22 21 22 18 18 14 16 13 13 18 16 15 12 13 14 12 11 11 12 11 7 8 7 4 6 5 5 6 8 7 9 12 15 12
4 9 8 1 4 10 7 7 4 5 3 8 17 24 22 29 20 20 18 19 18 18 14 16 16 15 12 13 13 12 12 11 8 9 7 5 3 5 5 7 6 5 5 9 14 13 14 15 15
8 10 14 13 9 7 7 10 3 3 7 6 7 20 23 22 22 21 21 22 23 18 14 9 16 14 12 13 13 13 10 7 7 8 11 12 11 10 9 12 14 14 10 14 12 13 13 16 14
7 8 8 13 13 8 7 6 7 4 2 21 19 22 20 21 21 20 15 14 22 15 10 14 16 14 13 12 10 9 10 13 13 12 10 11 13 14 14 12 13 12 11 13 13 14 14 14 15
2 12 16 6 10 7 1 4 10 4 9 21 11 24 22 25 27 23 20 19 17 15 14 17 16 13 14 13 15 15 14 13 12 12 12 14 15 16 15 12 12 12 12 13 14 14 14 14 15
7 12 11 11 7 2 6 5 6 15 7 19 17 23 32 34 31 30 24 18 19 18 21 17 17 16 18 16 14 12 12 13 14 13 13 15 15 15 15 13 12 11 11 12 13 14 15 15 12
3 5 7 3 2 4 8 1 4 19 20 17 18 20 25 27 30 27 27 22 24 22 21 15 15 16 18 16 14 12 12 13 13 12 12 14 15 15 14 13 9 9 11 12 13 9 10 10 10
5 4 7 4 11 3 7 5 8 24 16 18 21 22 26 21 14 17 26 22 24 23 21 17 18 19 18 16 15 14 13 13 12 12 12 13 13 13 12 12 11 12 11 10 8 8 5 6 6
4 5 7 8 9 11 10 12 15 21 19 23 24 24 25 24 24 21 23 19 23 22 19 20 18 19 16 16 15 11 11 10 9 10 11 11 9 12 11 12 12 11 10 8 7 4 4 3 3
9 18 20 18 14 13 18 14 19 16 21 25 25 26 25 25 25 20 24 24 20 16 21 23 24 19 19 15 14 10 9 9 8 9 9 10 12 15 14 13 11 9 9 8 5 2 2 2 3
8 15 26 26 7 21 10 14 16 16 24 28 29 26 26 21 21 24 25 20 22 24 21 19 20 20 16 14 10 6 10 7 11 9 10 13 13 14 13 12 10 9 9 6 3 2 1 1 2
18 17 11 7 3 15 8 3 7 9 3 8 14 21 24 30 28 25 23 19 18 20 21 20 20 18 15 14 11 8 8 10 7 10 11 10 14 13 12 10 10 9 7 5 2 1 2 2 1
19 12 6 3 3 7 2 9 7 16 20 10 14 16 23 23 21 22 25 23 24 21 16 17 18 17 15 13 13 16 14 16 10 14 11 12 14 13 13 12 9 7 4 3 4 2 1 2 4
13 8 4 2 4 3 1 1 7 12 20 28 26 24 23 26 25 25 26 26 22 22 22 20 16 14 13 16 16 19 18 13 10 11 15 12 8 5 3 4 5 7 8 6 6 5 3 2 4
15 2 11 9 5 2 6 4 11 12 24 21 19 23 26 25 19 19 17 19 22 20 18 17 18 18 16 17 17 21 20 16 17 14 12 7 9 12 10 12 8 8 8 7 5 4 4 5 6
1 6 3 1 1 6 5 4 16 12 18 19 19 21 21 22 24 23 23 21 18 22 21 18 18 14 14 16 16 16 18 17 20 15 14 13 10 8 11 10 4 6 5 4 3 4 5 5 6
4 4 4 3 4 6 4 7 7 14 14 6 17 19 20 23 22 23 23 21 22 21 22 18 18 17 18 21 20 18 17 15 12 12 9 8 11 11 11 8 6 5 4 5 7 7 8 7 6
2 4 10 3 2 3 4 4 8 5 7 8 10 18 19 21 23 23 21 22 22 21 21 22 22 19 20 21 20 18 16 15 17 13 11 6 4 7 7 7 6 5 7 8 8 9 10 9 8
6 9 4 5 4 4 3 6 10 7 6 5 13 18 20 18 20 21 23 24 23 24 24 23 22 23 22 22 20 18 14 14 14 9 7 6 7 7 7 5 4 3 5 6 5 3 3 4 3
6 5 2 5 5 5 5 5 6 15 13 14 17 23 27 26 25 25 25 24 25 24 25 25 22 21 19 18 17 15 11 12 5 7 5 9 6 6 4 3 1 2 1 3 3 2 2 1 2
2 9 10 7 6 2 3 6 4 18 19 21 23 21 22 27 27 27 28 26 23 23 20 21 21 24 20 17 15 13 13 8 3 4 6 5 5 3 3 2 3 5 6 6 5 4 5 6 6
Wind_Direction
172 164 126 70 107 60 272 254 236 280 298 251 163 113 98 93 139 162 126 133 140 144 139 131 122 121 121 123 120 118 116 107 103 99 94 94 95 96 93 90 90 87 84 78 70 61 50 47 48
180 141 61 93 136 191 261 284 282 264 180 181 96 117 56 76 39 123 119 145 141 140 142 140 121 123 123 124 120 122 114 107 106 106 104 103 102 101 100 96 93 92 87 81 75 65 53 46 48
215 149 135 175 169 223 285 310 141 242 261 231 119 61 77 91 104 145 132 141 135 139 147 142 127 129 128 126 120 116 114 112 113 111 111 109 109 107 105 102 98 96 92 84 74 66 59 48 53
125 50 47 221 249 277 300 268 129 230 259 132 118 78 76 28 102 144 139 142 125 132 133 122 119 120 121 123 118 116 118 116 117 115 114 115 115 114 111 106 102 101 96 89 76 64 55 44 40
43 75 254 59 308 354 1 47 3 315 20 32 32 94 59 36 85 128 143 136 126 126 120 127 121 121 122 120 117 123 122 115 122 120 119 120 120 117 113 110 111 109 102 96 85 72 52 40 35
12 100 271 81 310 100 341 17 46 47 38 339 71 97 87 108 91 113 115 123 118 110 111 115 118 123 120 112 119 126 121 124 127 123 123 127 129 123 118 122 122 113 112 99 92 74 56 41 35
189 195 254 265 286 241 245 341 94 97 53 10 18 78 86 102 106 119 111 104 113 123 119 119 126 131 122 127 133 130 128 129 130 131 134 138 134 129 133 130 133 126 118 112 101 69 49 32 26
156 174 269 256 313 262 225 210 183 139 97 143 359 138 165 154 110 111 109 109 122 148 140 144 134 121 134 134 137 132 130 138 144 143 142 141 141 136 130 134 127 116 105 92 64 57 48 33 22
143 235 289 279 243 206 193 203 197 336 292 110 63 214 127 121 107 111 120 122 138 136 140 132 138 142 137 139 143 140 143 147 152 141 143 139 137 123 126 119 100 88 77 28 26 26 28 22 43
167 205 273 267 148 191 205 185 166 191 97 66 96 114 118 123 125 127 134 119 121 128 152 153 158 152 155 156 148 140 137 151 152 147 149 127 127 117 107 85 79 47 20 14 14 17 44 50 39
236 261 204 205 139 139 176 184 188 136 190 200 178 139 141 130 127 123 119 125 142 146 194 177 155 165 166 149 145 146 157 155 149 136 140 135 160 108 113 65 71 49 60 64 69 66 58 54 49
255 256 203 146 153 159 179 154 86 130 237 282 175 152 139 139 135 139 140 145 160 190 196 196 154 175 162 153 158 161 145 132 136 134 139 133 105 98 93 88 90 86 77 80 69 65 60 56 50
209 168 137 146 152 176 138 57 140 178 66 102 116 121 126 115 128 126 156 173 178 206 217 176 175 172 159 145 132 121 133 125 132 127 116 123 121 111 102 96 93 90 88 84 78 69 62 49 44
148 159 111 123 132 184 166 182 125 269 142 106 139 132 126 132 140 160 179 186 194 194 178 170 173 154 138 133 133 136 133 129 114 106 107 104 111 113 110 105 99 91 88 87 79 69 60 48 37
104 121 109 150 163 37 30 10 41 158 192 127 153 144 156 162 162 184 182 189 178 178 164 162 145 139 133 131 132 127 123 123 116 114 111 112 116 118 118 113 96 89 89 81 71 58 50 44 32
155 129 155 241 137 216 94 28 297 157 154 158 148 164 163 173 180 182 179 189 175 173 170 149 148 138 131 135 125 121 121 117 114 115 117 121 120 120 115 109 99 108 102 81 69 62 59 52 39
12 307 101 177 216 188 148 170 193 162 167 162 165 167 168 182 205 177 179 181 177 172 163 150 145 147 139 130 120 121 121 119 124 131 128 127 124 122 111 99 91 94 80 75 85 65 79 61 38
308 343 331 246 232 254 209 226 186 168 169 161 162 168 179 187 199 194 186 189 179 166 159 153 152 146 139 127 122 113 118 128 134 134 135 131 130 120 104 95 96 102 91 88 94 102 79 102 42
337 339 302 274 240 221 229 209 209 162 151 142 162 171 183 191 194 197 199 186 167 159 159 163 159 159 149 139 142 138 144 153 155 158 147 134 122 115 111 114 111 108 100 121 139 138 113 77 28
315 288 278 278 230 202 216 219 206 178 168 166 163 170 172 176 186 190 191 172 164 165 168 165 167 166 163 158 152 144 156 179 167 166 163 139 130 133 133 139 135 131 131 136 119 117 134 269 48
280 270 250 262 288 186 152 114 200 218 207 161 182 169 167 163 159 166 170 160 157 165 170 171 171 169 172 167 146 113 111 130 151 163 153 153 141 147 148 151 160 161 154 160 174 175 185 293 312
279 256 211 258 44 146 179 183 200 198 213 206 205 188 177 171 164 153 159 161 168 173 166 166 173 184 181 170 170 167 166 169 179 171 166 161 160 166 165 175 166 163 135 71 30 80 188 166 298
247 260 322 53 56 60 10 114 228 177 202 217 216 201 187 182 171 165 164 167 170 162 168 177 188 189 186 187 190 182 178 179 165 166 166 173 177 178 107 103 103 105 89 76 44 22 344 263 248
278 87 43 39 29 310 265 175 263 223 221 205 210 200 187 182 171 165 158 156 165 165 168 180 183 199 196 193 189 182 177 170 164 163 164 131 106 100 85 85 74 76 64 48 33 23 349 322 278
64 47 341 356 27 243 316 222 248 248 242 229 202 193 185 173 164 162 161 161 169 170 176 179 179 184 179 164 167 160 149 147 147 152 146 134 112 86 81 68 69 69 68 56 29 6 353 335 294
30 149 174 277 242 242 218 236 242 304 259 184 171 169 171 169 167 170 166 163 168 175 179 172 162 147 138 132 131 127 127 124 119 113 89 89 124 137 132 156 126 100 65 29 23 13 355 340 325
178 189 162 142 215 270 246 293 303 311 239 224 160 156 163 164 165 163 161 165 166 164 168 164 151 150 142 136 132 131 130 127 129 130 131 112 142 132 135 119 96 57 33 38 49 49 39 33 14
187 159 152 104 260 247 267 276 236 223 201 201 182 177 175 167 161 163 167 167 163 155 157 158 160 157 154 147 144 141 137 133 139 128 125 139 164 148 131 115 88 52 52 101 75 67 31 21 335
156 198 232 172 183 244 267 255 243 195 195 196 196 190 180 176 171 172 174 174 171 167 161 166 163 154 149 143 136 125 111 105 72 99 160 163 153 150 141 122 90 7 129 167 169 207 208 296 296
208 258 206 213 243 202 200 246 237 201 202 201 201 193 186 181 180 179 180 178 177 176 168 166 156 149 137 130 123 122 121 108 171 130 124 145 143 153 140 187 253 273 233 217 228 242 254 256 266